{"data":{"norad_id":53833,"epoch":"2026-05-25T04:48:32.138208Z","epoch_age_seconds":64567,"freshness":"FRESH","line1":"1 53833U 22114R   26145.20037197 -.00000227  00000+0  38004-5 0  9990","line2":"2 53833  53.2141 320.5268 0001316  84.9699 275.1443 15.08848024204385","mean_motion":15.08848024,"eccentricity":0.0001316,"inclination_deg":53.2141,"raan_deg":320.5268,"arg_perigee_deg":84.9699,"mean_anomaly_deg":275.1443,"bstar":3.8004e-6,"rev_number":20438,"period_min":95.437047144252,"perigee_km":538.80847308329,"apogee_km":540.6292527464,"semimajor_km":6917.8558629148,"source":"CELESTRAK","updated_at":"2026-05-25T13:38:17.572301Z"}}